Retour au catalogue

SL-12 R/B(2)

ActifGEO
NORAD 21762·ROCKET BODY·🇷🇺 Russia

Lancé Oct 23, 1991 depuis Baikonur Cosmodrome

Loading…

TLE

FraisSource: Space-Track

Époque: Sep 12, 2026, 21:02 UTC

1 21762U 91074D   26255.87686016  .00000020  00000-0  00000-0 0  9993
2 21762  13.3858 340.7377 0003050 244.1442 105.4714  0.99706500120548

Suivez SL-12 R/B(2) en temps réel avec AllMySat

Download on the App Store